sat.trackr.live / text

‹ back to catalog

FLOCK 4G-21

NORAD 62651 · 2025-009AU

PAYLOAD ACTIVE UNKNOWN

§ Identity

Operator
Country
US
Launch date
2025-01-14
Launch site
AFWTR
Launch vehicle
Mass (kg)
RCS (m²)

Purposes: earth_obs

External: N2YO · Heavens-Above · Gunter

§ Orbital elements

Epoch: 2026-09-19T11:18:44.099136Z

Period
93.67 min
Inclination
97.3930°
Eccentricity
0.0001225
Mean motion
15.37306130 rev/d
Perigee alt
453.2 km
Apogee alt
454.9 km
Semi-major
6,832.2 km
B*
8.8053e-4
RAAN
345.1284°
Arg perigee
7.1197°
Mean anomaly
353.0065°
Rev number
9,341

§ Raw data

FLOCK 4G-211 62651U 25009AU  26262.47134374  .00032200  00000+0  88053-3 0  99902 62651  97.3930 345.1284 0001225   7.1197 353.0065 15.37306130 93413

JSON: /api/v1/satellites/62651 · /tle

For live sub-satellite position, see the globe view (requires WebGL).

§ Visibility from observer

Set your observer location to see the next 7 days of passes ≥ 10°. The values pass through the URL so the page stays shareable.

No JS? Fill the form by hand. The geolocation button needs JavaScript.